Flag for Germany Weather past 2 weeks in Lutherstadt Eisleben, Saxony-Anhalt, Germany

Now
59 °F

Rain. Low clouds.


Feels Like: 59 °F
Forecast: 51 / 64 °F
Wind: 5 mph from Southwest

Location: Leipzig-Schkeuditz

Current Time: Aug 31, 2014 at 7:17:53 AM

Latest Report: Aug 31, 2014 at 7:00 AM


Visibility: 4 mi

Pressure: 29.93 "Hg

Humidity: 96%

Dew point: 58 °F

Location of Lutherstadt EislebenLocation

Historic Weather in Lutherstadt Eisleben — Graph

°F

Lutherstadt Eisleben temperature yesterday

Maximum temperature yesterday: 70 °F (at 4:00 PM)
Minimum temperature yesterday: 60 °F (at 7:00 AM)
Average temperature yesterday: 65 °F

Past Weeks' High & Low Weather Summary

 TemperatureHumidityPressure
High73 °F (Aug 28, 4:00 PM)97% (Aug 26, 4:00 AM)30.09 "Hg (Aug 26, 4:00 AM)
Low48 °F (Aug 21, 6:00 AM)31% (Aug 22, 4:00 PM)29.68 "Hg (Aug 18, 1:00 PM)
Average59 °F72%29.94 "Hg
* Reported Aug 16 6:00 AM — Aug 31 6:00 AM, Lutherstadt Eisleben, Weather by CustomWeather, © 2014

Note: Actual official high and low records may vary slightly from our data, if they occured in-between our weather recording intervals... More about our weather records

Advertising

Lutherstadt Eisleben weather history for previous 24 hours

 ConditionsComfort  
Time TempWeatherWind HumidityBarometerVisibility
6:00 AM
Aug 31
59 °FSprinkles. Overcast.5 mph95%29.93 "Hg6 mi
5:00 AM60 °FLight rain. Overcast.5 mph94%29.94 "Hg12 mi
4:00 AM61 °FOvercast.3 mph89%29.96 "Hg25 mi
3:00 AM61 °FLight rain. Overcast.2 mph89%29.96 "Hg25 mi
2:00 AM61 °FOvercast.3 mph88%29.98 "Hg25 mi
1:00 AM61 °FOvercast.3 mph91%29.99 "Hg19 mi
12:00 AM62 °FLight rain. Low clouds.7 mph85%30.00 "Hg7 mi
10:00 PM
Aug 30
65 °FOvercast.2 mph70%30.01 "Hg25 mi
9:00 PM64 °FLight rain. Overcast.5 mph76%30.01 "Hg25 mi
8:00 PM66 °FOvercast.5 mph64%30.00 "Hg28 mi
7:00 PM68 °FOvercast.5 mph60%30.00 "Hg28 mi
6:00 PM69 °FOvercast.5 mph57%30.00 "Hg37 mi
4:00 PM70 °FOvercast.6 mph57%30.02 "Hg37 mi
3:00 PM69 °FOvercast.7 mph55%30.03 "Hg37 mi
2:00 PM68 °FOvercast.6 mph61%30.03 "Hg37 mi
1:00 PM67 °FOvercast.6 mph61%30.03 "Hg34 mi
12:00 PM69 °FOvercast.5 mph64%30.04 "Hg28 mi
10:00 AM65 °FScattered clouds.5 mph79%30.04 "Hg16 mi
9:00 AM62 °FPartly sunny.5 mph92%30.04 "Hg6 mi
8:00 AM61 °FOvercast.5 mph94%30.03 "Hg5 mi
7:00 AM60 °FFog.2 mph94%30.02 "Hg4 mi
Weather by CustomWeather, © 2014

See weather overviewHow to use our weather pages